sat.trackr.live / text

‹ back to catalog

STARLINK-2581

NORAD 48412 · 2021-038BM

PAYLOAD ACTIVE UNKNOWN

§ Identity

Operator
Country
US
Launch date
2021-05-04
Launch site
AFETR
Launch vehicle
Mass (kg)
RCS (m²)

Purposes: comms

External: N2YO · Heavens-Above · Gunter

§ Orbital elements

Epoch: 2026-09-20T01:04:54.485184Z

Period
94.01 min
Inclination
53.1582°
Eccentricity
0.0001339
Mean motion
15.31714305 rev/d
Perigee alt
469.8 km
Apogee alt
471.6 km
Semi-major
6,848.8 km
B*
4.6505e-4
RAAN
111.9638°
Arg perigee
94.8271°
Mean anomaly
265.2883°
Rev number
29,772

§ Raw data

STARLINK-25811 48412U 21038BM  26263.04507506  .00014100  00000+0  46505-3 0  99972 48412  53.1582 111.9638 0001339  94.8271 265.2883 15.31714305297722

JSON: /api/v1/satellites/48412 · /tle

For live sub-satellite position, see the globe view (requires WebGL).

§ Visibility from observer

Set your observer location to see the next 7 days of passes ≥ 10°. The values pass through the URL so the page stays shareable.

No JS? Fill the form by hand. The geolocation button needs JavaScript.